Torna al catalogo

STARLINK-32163

AttivoComunicazioniVLEO
NORAD 60262·PAYLOAD·🇺🇸 United States

Lanciato Jul 27, 2024 da Cape Canaveral Space Force Station

Loading…

Prossimi Passaggi (prossime 24 ore)

TLE

AggiornatoSource: CelesTrak SupGP

Epoca: Sep 14, 2026, 21:13 UTC

1 60262C 24131H   26257.88451389  .00044260  00000+0  14234-2 0  2573
2 60262  53.1581 252.0464 0001249  93.8719  50.5510 15.31677500    19

Traccia STARLINK-32163 in tempo reale con AllMySat

Download on the App Store